Simultaneous Nadir Overpasses (SNOs) Predictions

Prediction of SNOs between AQUA and METOP-B Satellite Orbit:

Table of predicted SNOs for the next 14.0 days since TLE Epoch: 5/20/2023
Index Date (AQUA) Time (AQUA) Lat,Lon (AQUA) SZA (AQUA ) Date (METOP-B) Time (METOP-B) Lat,Lon (METOP-B) SZA (METOP-B ) Distance(km) Time Diff (sec)
1 05/22/2023 05:43:12 -74.44, -90.01 125.96 05/22/2023 05:42:12 -74.46, -90.02 125.94 1.75 60
2 05/22/2023 06:32:39 74.52, 77.45 54.12 05/22/2023 06:32:51 74.49, 77.41 54.10 2.74 12
3 05/22/2023 07:22:14 -75.09,-116.36 125.29 05/22/2023 07:23:20 -75.11,-113.57 125.32 79.86 66
4 05/24/2023 23:36:01 -74.47, 1.76 126.45 05/24/2023 23:35:09 -74.48, 1.79 126.44 1.54 52
5 05/25/2023 00:25:28 74.54, 169.21 53.62 05/25/2023 00:25:48 74.51, 169.21 53.59 3.81 20
6 05/27/2023 17:28:48 -74.49, 93.54 126.91 05/27/2023 17:28:05 -74.49, 93.58 126.90 1.17 43
7 05/27/2023 18:18:14 74.52, -98.89 53.12 05/27/2023 18:18:44 74.52, -99.01 53.12 3.65 30
8 05/30/2023 11:21:35 -74.51,-174.67 127.32 05/30/2023 11:21:02 -74.49,-174.66 127.33 1.73 33
9 05/30/2023 12:11:01 74.54, -7.11 52.71 05/30/2023 12:11:40 74.56, -7.13 52.74 2.98 39
10 06/02/2023 05:14:21 -74.52, -82.87 127.68 06/02/2023 05:13:58 -74.53, -82.79 127.67 2.82 23
11 06/02/2023 06:03:47 74.56, 84.69 52.35 06/02/2023 06:04:37 74.56, 84.60 52.35 2.48 50



Historial Predications of SNOs between AQUA and METOP-B
